sat.trackr.live / text

‹ back to catalog

STARLINK-31117

NORAD 58776 · 2024-011M

PAYLOAD ACTIVE UNKNOWN

§ Identity

Operator
Country
US
Launch date
2024-01-14
Launch site
AFWTR
Launch vehicle
Mass (kg)
RCS (m²)

Purposes: comms

External: N2YO · Heavens-Above · Gunter

§ Orbital elements

Epoch: 2026-05-24T22:53:48.090048Z

Period
94.11 min
Inclination
53.1608°
Eccentricity
0.0001134
Mean motion
15.30193524 rev/d
Perigee alt
474.5 km
Apogee alt
476.0 km
Semi-major
6,853.4 km
B*
7.8978e-5
RAAN
19.6438°
Arg perigee
92.8590°
Mean anomaly
267.2541°
Rev number
13,194

§ Raw data

STARLINK-311171 58776U 24011M   26144.95402882  .00001980  00000+0  78978-4 0  99962 58776  53.1608  19.6438 0001134  92.8590 267.2541 15.30193524131949

JSON: /api/v1/satellites/58776 · /tle

For live sub-satellite position, see the globe view (requires WebGL).

§ Visibility from observer

Set your observer location to see the next 7 days of passes ≥ 10°. The values pass through the URL so the page stays shareable.

No JS? Fill the form by hand. The geolocation button needs JavaScript.